Location: Nickerson Gardens
(33.9320°N, 118.2484°W)
Time: 07:56:46
(UTC+00:00)

Envisat - Pass Details

Date: 31 January 2021
Orbit: 764 x 766 km, 98.1° (Epoch: 04 March)

Event Time Altitude Azimuth Distance (km) Brightness Sun altitude
Rises 12:35:43 0° 29° (NNE) 3,234 6.6 -28.1°
Reaches altitude 10° 12:38:33 10° 45° (NE) 2,303 6.0 -27.5°
Maximum altitude 12:42:25 22° 95° (E) 1,632 5.4 -26.7°
Drops below altitude 10° 12:46:16 10° 145° (SE) 2,292 5.9 -25.9°
Sets 12:49:03 0° 160° (SSE) 3,213 6.5 -25.3°
